Angel Fire, NM

10:44 AM MST on December 11, 2019 (GMT -0700)
Angel Fire

Weather History for KAXX - November, 2019

Change the Weather History Date:

Tuesday, November 12, 2019

  Actual Average (KSKX) Record (KSKX)
Temperature  
Mean Temperature 24 °F -  
Max Temperature 47 °F 48 °F 68 °F (1999)
Min Temperature 0 °F 20 °F -2 °F (2018)
Degree Days  
Heating Degree Days 42    
Moisture  
Dew Point 7 °F    
Average Humidity 52    
Maximum Humidity 88    
Minimum Humidity 20    
Precipitation  
Precipitation 0.00 in - - ()
Sea Level Pressure  
Sea Level Pressure 30.33 in    
Wind  
Wind Speed 4 mph (West)    
Max Wind Speed 18 mph    
Max Gust Speed 23 mph    
Visibility 10 miles    
Events      
Averages and records for this station are not official NWS values.
T = Trace of Precipitation, MM = Missing Value Source: NWS Daily Summary

Daily Weather History Graph

Daily Weather History Graph

Search for Another Location

Airport or City:

Astronomy

Nov. 12, 2019 Rise Set
Actual Time 6:35 AM MST 4:54 PM MST
Civil Twilight 6:07 AM MST 5:22 PM MST
Nautical Twilight 5:36 AM MST 5:53 PM MST
Astronomical Twilight 5:06 AM MST 6:23 PM MST
Moon 5:22 PM MST (11/12) 6:30 AM MST (11/12)
Length of Visible Light 11h 14m
Length of Day
10h 19m
Full, 100% of the Moon is Illuminated
Nov 12
Full
Nov 19
Last Quarter
Nov 26
New
Dec 3
First Quarter
Dec 11
Full

Hourly Weather History & Observations

Time (MST) Temp. Windchill Dew Point Humidity Pressure Visibility Wind Dir Wind Speed Gust Speed Precip Events Conditions
12:15 AM 7.0 °F - 3.6 °F 86% 30.44 in 10.0 mi Calm Calm - N/A   Clear
12:35 AM 7.5 °F - 4.1 °F 86% 30.44 in 10.0 mi Calm Calm - N/A   Clear
12:55 AM 5.5 °F - 2.7 °F 88% 30.44 in 10.0 mi Calm Calm - N/A   Clear
1:15 AM 5.9 °F - 2.5 °F 86% 30.43 in 10.0 mi Calm Calm - N/A   Clear
1:35 AM 5.7 °F - 1.9 °F 84% 30.44 in 10.0 mi Calm Calm - N/A   Clear
1:55 AM 5.7 °F - 2.3 °F 86% 30.44 in 10.0 mi Calm Calm - N/A   Clear
2:15 AM 4.3 °F - 1.2 °F 87% 30.44 in 10.0 mi Calm Calm - N/A   Clear
2:35 AM 5.9 °F - 2.8 °F 87% 30.44 in 10.0 mi Calm Calm - N/A   Clear
2:55 AM 6.8 °F - 3.2 °F 85% 30.43 in 10.0 mi Calm Calm - N/A   Clear
3:15 AM 6.4 °F - 2.5 °F 84% 30.43 in 10.0 mi Calm Calm - N/A   Clear
3:35 AM 3.6 °F - 0.3 °F 86% 30.42 in 10.0 mi Calm Calm - N/A   Clear
3:55 AM 5.2 °F - 1.9 °F 86% 30.42 in 10.0 mi Calm Calm - N/A   Clear
4:15 AM 2.3 °F - -1.3 °F 85% 30.42 in 10.0 mi Calm Calm - N/A   Clear
4:35 AM 4.8 °F - 1.0 °F 84% 30.42 in 10.0 mi Calm Calm - N/A   Clear
5:15 AM 3.2 °F - -0.6 °F 84% 30.41 in 10.0 mi Calm Calm - N/A   Clear
5:35 AM 1.9 °F - -1.7 °F 85% 30.41 in 10.0 mi Calm Calm - N/A   Clear
5:55 AM 0.7 °F - -3.6 °F 82% 30.41 in 10.0 mi Calm Calm - N/A   Clear
6:15 AM 2.1 °F - -2.0 °F 83% 30.42 in 10.0 mi Calm Calm - N/A   Clear
6:30 AM 2.5 °F - -1.3 °F 84% 30.42 in 10.0 mi Calm Calm - N/A   Clear
6:55 AM 3.0 °F - -0.9 °F 84% 30.42 in 10.0 mi Calm Calm - N/A   Clear
7:15 AM 5.9 °F - 2.8 °F 87% 30.41 in 10.0 mi Calm Calm - N/A   Clear
7:35 AM 9.7 °F - 6.6 °F 87% 30.41 in 10.0 mi Calm Calm - N/A   Clear
7:55 AM 13.8 °F - 10.0 °F 85% 30.41 in 10.0 mi Calm Calm - N/A   Clear
8:15 AM 17.1 °F - 12.7 °F 83% 30.41 in 10.0 mi Calm Calm - N/A   Clear
8:35 AM 20.1 °F 12.3 °F 15.1 °F 81% 30.41 in 10.0 mi NNE 5.8 mph - N/A   Clear
8:55 AM 22.1 °F 12.0 °F 16.3 °F 79% 30.41 in 10.0 mi NE 9.2 mph - N/A   Clear
9:15 AM 25.7 °F 17.1 °F 17.8 °F 72% 30.40 in 10.0 mi NNE 8.1 mph - N/A   Clear
9:35 AM 30.7 °F 24.1 °F 18.9 °F 61% 30.39 in 10.0 mi NE 6.9 mph - N/A   Clear
10:15 AM 39.2 °F - 16.0 °F 39% 30.38 in 10.0 mi Calm Calm - N/A   Clear
10:35 AM 42.4 °F 35.7 °F 15.3 °F 33% 30.36 in 10.0 mi West 12.7 mph - N/A   Clear
10:55 AM 43.0 °F 35.1 °F 14.2 °F 31% 30.36 in 10.0 mi West 17.3 mph - N/A   Clear
11:15 AM 44.1 °F 37.4 °F 14.0 °F 30% 30.35 in 10.0 mi West 13.8 mph 20.7 mph N/A   Clear
11:35 AM 45.0 °F 38.9 °F 13.3 °F 28% 30.34 in 10.0 mi WSW 12.7 mph 18.4 mph N/A   Clear
11:55 AM 45.7 °F 38.3 °F 12.6 °F 26% 30.33 in 10.0 mi WNW 18.4 mph 23.0 mph N/A   Clear
12:15 PM 46.0 °F 39.3 °F 11.5 °F 25% 30.31 in 10.0 mi WNW 16.1 mph - N/A   Clear
12:35 PM 47.3 °F - 11.7 °F 24% 30.29 in 10.0 mi WNW 16.1 mph - N/A   Clear
12:55 PM 46.8 °F - 11.5 °F 24% 30.28 in 10.0 mi West 13.8 mph 20.7 mph N/A   Clear
1:15 PM 47.5 °F - 10.9 °F 23% 30.27 in 10.0 mi West 12.7 mph 17.3 mph N/A   Clear
1:35 PM 47.5 °F - 9.0 °F 21% 30.26 in 10.0 mi West 15.0 mph 19.6 mph N/A   Clear
1:55 PM 47.5 °F - 8.6 °F 21% 30.26 in 10.0 mi West 12.7 mph - N/A   Clear
2:15 PM 46.8 °F - 7.2 °F 20% 30.25 in 10.0 mi West 12.7 mph 19.6 mph N/A   Clear
2:35 PM 46.4 °F 39.8 °F 7.5 °F 21% 30.25 in 10.0 mi West 16.1 mph 19.6 mph N/A   Clear
2:55 PM 45.7 °F 39.8 °F 7.9 °F 21% 30.25 in 10.0 mi West 12.7 mph - N/A   Clear
3:15 PM 45.7 °F 39.8 °F 6.8 °F 20% 30.24 in 10.0 mi West 12.7 mph - N/A   Clear
3:35 PM 45.1 °F 40.8 °F 7.0 °F 21% 30.24 in 10.0 mi West 8.1 mph 16.1 mph N/A   Clear
3:55 PM 44.1 °F 39.5 °F 6.6 °F 22% 30.24 in 10.0 mi West 8.1 mph - N/A   Clear
4:15 PM 42.6 °F 36.3 °F 8.4 °F 25% 30.24 in 10.0 mi West 11.5 mph - N/A   Clear
4:35 PM 39.9 °F 35.1 °F 9.5 °F 29% 30.23 in 10.0 mi West 6.9 mph - N/A   Clear
4:55 PM 37.6 °F 30.0 °F 9.5 °F 31% 30.23 in 10.0 mi WNW 11.5 mph 16.1 mph N/A   Clear
5:15 PM 36.5 °F 32.7 °F 8.6 °F 31% 30.24 in 10.0 mi West 4.6 mph - N/A   Clear
5:35 PM 37.0 °F - 8.4 °F 31% 30.24 in 10.0 mi Calm Calm - N/A   Clear
5:55 PM 36.9 °F - 7.7 °F 30% 30.24 in 10.0 mi Calm Calm - N/A   Clear
6:15 PM 35.6 °F - 7.2 °F 31% 30.24 in 10.0 mi Calm Calm - N/A   Clear
6:35 PM 32.9 °F - 6.8 °F 33% 30.24 in 10.0 mi Calm Calm - N/A   Clear
6:55 PM 32.4 °F 27.9 °F 7.3 °F 35% 30.23 in 10.0 mi SSW 4.6 mph - N/A   Clear
7:15 PM 30.2 °F - 7.9 °F 39% 30.23 in 10.0 mi Calm Calm - N/A   Clear
7:35 PM 32.7 °F 28.3 °F 7.9 °F 35% 30.24 in 10.0 mi SW 4.6 mph - N/A   Clear
7:55 PM 33.4 °F 29.1 °F 8.4 °F 35% 30.24 in 10.0 mi WSW 4.6 mph - N/A   Clear
8:15 PM 35.6 °F 31.7 °F 8.8 °F 33% 30.24 in 10.0 mi West 4.6 mph - N/A   Clear
8:35 PM 33.8 °F 27.7 °F 9.1 °F 36% 30.24 in 10.0 mi WSW 6.9 mph - N/A   Clear
8:55 PM 34.2 °F 25.7 °F 9.0 °F 35% 30.25 in 10.0 mi South 11.5 mph - N/A   Clear
9:15 PM 32.7 °F - 8.6 °F 37% 30.25 in 10.0 mi Calm Calm - N/A   Clear
9:35 PM 32.9 °F 25.3 °F 8.8 °F 37% 30.25 in 10.0 mi SW 9.2 mph - N/A   Clear
9:55 PM 35.2 °F 27.1 °F 9.0 °F 34% 30.25 in 10.0 mi SW 11.5 mph 18.4 mph N/A   Clear
10:35 PM 32.7 °F 24.5 °F 8.4 °F 36% 30.23 in 10.0 mi WSW 10.4 mph - N/A   Clear
10:55 PM 32.4 °F 26.0 °F 9.0 °F 38% 30.22 in 10.0 mi SW 6.9 mph - N/A   Clear
11:15 PM 29.8 °F 23.9 °F 9.0 °F 42% 30.22 in 10.0 mi SSE 5.8 mph - N/A   Clear
11:35 PM 28.8 °F 20.9 °F 9.5 °F 45% 30.21 in 10.0 mi SE 8.1 mph - N/A   Clear
11:55 PM 29.7 °F 26.1 °F 9.3 °F 43% 30.20 in 10.0 mi SSE 3.5 mph - N/A   Clear